Regional Weather Roundup
Issued by NWS

Home | Current Version | Previous Version | Graphics & Text | Print | Product List | Glossary On
Versions: 1 2 3 4 5 6 7 8 9 10 11 12 13 14 15 16 17 18 19 20 21 22 23 24 25 26 27 28 29 30 31 32 33 34 35 36 37 38 39 40 41 42 43 44 45 46 47 48 49 50
000
ASUS43 KMKX 230320
RWRWI

WISCONSIN REGIONAL WEATHER ROUNDUP
NATIONAL WEATHER SERVICE MILWAUKEE/SULLIVAN WI
1000 PM CDT SUN APR 22 2018

NOTE: "FAIR" INDICATES FEW OR NO CLOUDS BELOW 12,000 FEET WITH NO
SIGNIFICANT WEATHER AND/OR OBSTRUCTIONS TO VISIBILITY.

WIZ001-002-006>008-014>016-023>028-230400-
NORTHWEST WISCONSIN

CITY           SKY/WX    TMP DP  RH WIND       PRES   REMARKS
SUPERIOR ARPT  FAIR      34  29  80 CALM      30.25S
ASHLAND        FAIR      34  25  69 W3        30.26R
HAYWARD        FAIR      39  27  62 CALM      30.27R
SIREN          FAIR      42  31  64 CALM      30.26S
CUMBERLAND     FAIR      43  30  61 CALM      30.26S
RICE LAKE      FAIR      40  33  74 CALM      30.28S
CHETEK         FAIR      48  29  48 CALM      30.27R
LADYSMITH      FAIR      44  29  55 SE5       30.29S
EAU CLAIRE     FAIR      52  26  36 SE10      30.26R
MENOMONIE      FAIR      46  38  73 CALM      30.26S
NEW RICHMOND   FAIR      43  34  69 CALM      30.26R
OSCEOLA        FAIR      43  35  71 CALM      30.28S
$$

WIZ003>005-009-010-017-018-230400-
NORTH CENTRAL WISCONSIN

CITY           SKY/WX    TMP DP  RH WIND       PRES   REMARKS
MANITOWISH WTR FAIR      36  26  66 S3        30.27S
ARBOR VITAE    FAIR      43  26  52 CALM      30.28R
WOODRUFF       FAIR      43  26  52 CALM      30.28R
RHINELANDER    FAIR      49  16  26 S3        30.30R
EAGLE RIVER    FAIR      44  15  30 S3        30.28S
LAND O LAKES   FAIR      33  21  61 S3        30.29F
PHILLIPS       FAIR      37  27  68 CALM      30.27F
TOMAHAWK       FAIR      37  20  50 CALM      30.30R
MEDFORD        FAIR      44  23  44 CALM      30.28S
MERRILL          N/A     34  22  61 CALM      30.30S
$$

WIZ029-030-035-036-043>047-230400-
CENTRAL WISCONSIN

CITY           SKY/WX    TMP DP  RH WIND       PRES   REMARKS
WAUSAU         FAIR      43  18  36 E5        30.28S
MOSINEE        CLEAR     48  10  21 E3        30.31S
MARSHFIELD     FAIR      46  21  37 E3        30.28S
STEVENS POINT  FAIR      34  22  60 CALM      30.31S
WAUPACA        FAIR      39  31  72 CALM      30.31S
WAUTOMA        FAIR      37  30  75 CALM      30.30S
WISC RAPIDS    FAIR      42  21  43 E3        30.30R
CAMP DOUGLAS   FAIR      42  27  54 E3        30.28R
$$

WIZ011>013-019>022-031-037>040-048>050-230400-
NORTHEAST WISCONSIN

CITY           SKY/WX    TMP DP  RH WIND       PRES   REMARKS
ANTIGO         FAIR      39  22  51 SE3       30.31R
SHAWANO        FAIR      39  29  69 CALM      30.31F
OCONTO         FAIR      36  22  58 CALM      30.32S
STURGEON BAY   NOT AVBL
GREEN BAY      FAIR      44  28  53 CALM      30.32R
MANITOWOC      FAIR      40  27  59 N3        30.33R
APPLETON       CLEAR     45  25  45 CALM      30.29S
CLINTONVILLE   FAIR      39  28  64 CALM      30.31S
OSHKOSH        FAIR      45  31  58 CALM      30.30R
$$

WIZ032>034-041-042-053>061-230400-
SOUTHWEST WISCONSIN

CITY           SKY/WX    TMP DP  RH WIND       PRES   REMARKS
LA CROSSE      FAIR      54  28  36 E6        30.26R
SPARTA         FAIR      38  27  64 CALM      30.29R
VIROQUA        FAIR      46  30  54 E8        30.26S
BOSCOBEL       FAIR      54  31  41 E6        30.26S
PRAIRIE DU CHI FAIR      52  24  34 SE3       30.25S
PLATTEVILLE    FAIR      48  32  54 E9        30.26S
$$

WIZ056-057-062-063-064-067-068-230400-
SOUTH CENTRAL WISCONSIN

CITY           SKY/WX    TMP DP  RH WIND       PRES   REMARKS
REEDSBURG      FAIR      47  29  50 CALM      30.27F
BARABOO/DELLS  FAIR      41  28  59 E5        30.28S
LONE ROCK      FAIR      47  32  56 E7        30.27S
MINERAL POINT  FAIR      50  30  46 E6        30.26S
MADISON        FAIR      45  29  53 CALM      30.27F
MIDDLETON      FAIR      43  33  68 CALM      30.28F
WATERTOWN      FAIR      41  29  61 E5        30.28F
MONROE         FAIR      50  23  34 NE7       30.26F
JANESVILLE     FAIR      45  30  57 NE8       30.27S
$$

WIZ051-052-058>065-066-070>072-230400-
SOUTHEAST WISCONSIN

CITY           SKY/WX    TMP DP  RH WIND       PRES   REMARKS
MILWAUKEE      FAIR      42  29  59 N3        30.31S
WAUKESHA       FAIR      41  25  52 E5        30.31S
MILWAUKEE/TIMM FAIR      39  25  56 CALM      30.31F
RACINE         FAIR      41  29  62 NE8       30.31S
BURLINGTON     FAIR      42  26  54 CALM      30.30R
KENOSHA        FAIR      43  27  53 N5        30.29S
FOND DU LAC    FAIR      39  32  76 CALM      30.30R
SHEBOYGAN      FAIR      37  31  78 NW3       30.31S
WEST BEND      FAIR      37  25  60 CALM      30.30S
JUNEAU         FAIR      46  26  45 NE5       30.29F
$$

LSZ147-162-230400-
LAKE SUPERIOR

STATION/POSITION TIME  TEMP    WIND        PRES    WAVE
                       AIR SEA DIR/SP/G            HT/PER
                 (UTC) (F)     (DEG/KT/KT) (MB)    (FT/S)
DEVILS ISLAND    0300   47     160/  7/  9 1024.6R
SAXON HARBOR     0240   36     190/  3/  4 1023.4S
$$

LMZ867-665-643>646-230400-
LAKE MICHIGAN

STATION/POSITION TIME  TEMP    WIND        PRES    WAVE
                       AIR SEA DIR/SP/G            HT/PER
                 (UTC) (F)     (DEG/KT/KT) (MB)    (FT/S)
NORTHPORT PIER   0240   37                 1026.8R
KEWAUNEE LAKESHO 0254   37     310/  3/  4 1026.0R
SHEBOYGAN LAKESH 0300   41     350/  7/  8 1027.0R
PORT WASHINGTON  0240   42     350/  2/  4 1027.1S
MILWAUKEE LAKESH 0300   43      10/  4/  5   N/A
KENOSHA   LAKESH 0300   42                 1025.4
$$

TC  - TEMPERATURE IN CELSIUS
VSB - VISIBILITY IN STATUTE MILES
WCI - WIND CHILL INDEX
HX  - HEAT INDEX





USA.gov is the U.S. government's official web portal to all federal, state and local government web resources and services.